AFL5761 URSS-ULLI

Flight info

Callsign AFL5761
Flight time N/A
Altitude 34000
Route ADNET1D ADNET W79 AMEPU A100 KL L91 KANON T748 PEPOR T611 TUKMO N50 NUDKO T561 ODATI T875 GENPA GENPA1B
Aircraft B738/M-SDE2E3FGHIRWXY/LB1

Departure

Time 2026-05-06 04:52
Airport Sochi International Airport (URSS)

Arrival

Time N/A
Airport Pulkovo Airport (ULLI)
Time Latitude Longitude Altitude Speed Heading
2026-05-06 04:34 43.44794 39.94311 73 ft 0 kts 334°
2026-05-06 04:43 43.44791 39.94313 63 ft 2 kts 334°
2026-05-06 04:44 43.44776 39.94323 73 ft 2 kts 334°
2026-05-06 04:44 43.44761 39.94332 73 ft 2 kts 334°
2026-05-06 04:44 43.44747 39.94342 73 ft 2 kts 334°
2026-05-06 04:44 43.44732 39.94352 72 ft 2 kts 334°
2026-05-06 04:45 43.44717 39.94361 67 ft 2 kts 336°
2026-05-06 04:45 43.44702 39.94370 74 ft 2 kts 343°
2026-05-06 04:45 43.44686 39.94374 74 ft 2 kts
2026-05-06 04:45 43.44674 39.94363 74 ft 2 kts 84°
2026-05-06 04:46 43.44671 39.94343 74 ft 0 kts 64°
2026-05-06 04:48 43.44673 39.94348 74 ft 2 kts 64°
2026-05-06 04:48 43.44687 39.94389 74 ft 7 kts 64°
2026-05-06 04:48 43.44717 39.94474 65 ft 12 kts 64°
2026-05-06 04:48 43.44759 39.94598 66 ft 16 kts 65°
2026-05-06 04:49 43.44806 39.94738 73 ft 16 kts 64°
2026-05-06 04:49 43.44852 39.94871 71 ft 15 kts 65°
2026-05-06 04:49 43.44897 39.95002 71 ft 16 kts 65°
2026-05-06 04:49 43.44944 39.95135 83 ft 15 kts 63°
2026-05-06 04:50 43.44989 39.95262 90 ft 15 kts 64°
2026-05-06 04:50 43.45030 39.95381 91 ft 11 kts 65°
2026-05-06 04:50 43.45060 39.95474 90 ft 7 kts 74°
2026-05-06 04:50 43.45040 39.95530 92 ft 7 kts 150°
2026-05-06 04:51 43.44981 39.95552 88 ft 10 kts 187°
2026-05-06 04:51 43.44943 39.95494 88 ft 8 kts 243°
2026-05-06 04:51 43.44849 39.95224 84 ft 66 kts 245°
2026-05-06 04:51 43.44556 39.94367 72 ft 130 kts 245°
2026-05-06 04:52 43.44106 39.93018 172 ft 172 kts 246°
2026-05-06 04:52 43.43589 39.91447 682 ft 188 kts 245°
2026-05-06 04:52 43.43261 39.89674 1144 ft 206 kts 276°
2026-05-06 04:52 43.43349 39.87610 1348 ft 229 kts 260°
2026-05-06 04:53 43.42911 39.85404 1652 ft 246 kts 255°
2026-05-06 04:53 43.42452 39.83090 2205 ft 254 kts 255°
2026-05-06 04:53 43.42009 39.80745 2944 ft 259 kts 256°
2026-05-06 04:53 43.41567 39.78340 3879 ft 258 kts 256°
2026-05-06 04:54 43.41129 39.75891 4652 ft 263 kts 256°
2026-05-06 04:54 43.40694 39.73427 5438 ft 266 kts 256°
2026-05-06 04:54 43.40250 39.70938 6153 ft 270 kts 256°
2026-05-06 04:54 43.39800 39.68404 6891 ft 274 kts 257°
2026-05-06 04:55 43.39495 39.65847 7594 ft 277 kts 273°
2026-05-06 04:55 43.40003 39.63297 8254 ft 280 kts 301°
2026-05-06 04:55 43.41300 39.61310 8961 ft 282 kts 325°
2026-05-06 04:55 43.43046 39.60060 9632 ft 285 kts 338°
2026-05-06 04:56 43.44905 39.59052 10270 ft 291 kts 339°
2026-05-06 04:56 43.46864 39.58030 10476 ft 313 kts 339°
2026-05-06 04:56 43.48973 39.56923 10649 ft 334 kts 339°
2026-05-06 04:56 43.51203 39.55732 10892 ft 352 kts 339°
2026-05-06 04:57 43.53517 39.54480 11406 ft 360 kts 339°
2026-05-06 04:57 43.55860 39.53199 12033 ft 363 kts 338°
2026-05-06 04:57 43.58224 39.51901 12630 ft 368 kts 339°
2026-05-06 04:57 43.60609 39.50592 13282 ft 370 kts 339°
2026-05-06 04:58 43.63100 39.49720 13883 ft 373 kts 357°
2026-05-06 04:58 43.65674 39.50089 14495 ft 374 kts 16°
2026-05-06 04:58 43.68159 39.51193 15112 ft 377 kts 19°
2026-05-06 04:58 43.70644 39.52397 15664 ft 380 kts 20°
2026-05-06 04:59 43.73147 39.53628 16215 ft 384 kts 20°
2026-05-06 04:59 43.75679 39.54861 16772 ft 387 kts 20°
2026-05-06 04:59 43.78231 39.56086 17318 ft 390 kts 19°
2026-05-06 04:59 43.80808 39.57311 17847 ft 393 kts 19°
2026-05-06 05:00 43.83410 39.58542 18364 ft 396 kts 19°
2026-05-06 05:00 43.86022 39.59773 18863 ft 399 kts 19°
2026-05-06 05:00 43.88628 39.61003 19353 ft 402 kts 19°
2026-05-06 05:00 43.91319 39.62273 19820 ft 405 kts 19°
2026-05-06 05:01 43.93960 39.63524 20281 ft 408 kts 19°
2026-05-06 05:01 43.96690 39.64815 20747 ft 411 kts 19°
2026-05-06 05:01 43.99369 39.66083 21185 ft 413 kts 19°
2026-05-06 05:01 44.02102 39.67376 21615 ft 416 kts 19°
2026-05-06 05:02 44.04849 39.68682 21992 ft 419 kts 19°
2026-05-06 05:02 44.07621 39.69999 22383 ft 422 kts 19°
2026-05-06 05:02 44.10402 39.71323 22802 ft 424 kts 19°
2026-05-06 05:02 44.12294 39.72225 23078 ft 425 kts 19°
2026-05-06 05:03 44.16017 39.74001 23533 ft 430 kts 19°
2026-05-06 05:03 44.17891 39.74897 23775 ft 431 kts 19°
2026-05-06 05:03 44.21705 39.76718 24256 ft 434 kts 19°
2026-05-06 05:03 44.23599 39.77623 24505 ft 435 kts 19°
2026-05-06 05:04 44.26469 39.78995 24865 ft 437 kts 19°
2026-05-06 05:04 44.29351 39.80375 25200 ft 439 kts 20°
2026-05-06 05:04 44.32245 39.81763 25537 ft 441 kts 20°
2026-05-06 05:04 44.35158 39.83145 25862 ft 443 kts 17°
2026-05-06 05:05 44.38209 39.83813 26140 ft 448 kts 359°
2026-05-06 05:05 44.41309 39.83371 26495 ft 449 kts 353°
2026-05-06 05:05 44.44409 39.82736 26784 ft 452 kts 352°
2026-05-06 05:05 44.47524 39.82068 27026 ft 454 kts 353°
2026-05-06 05:06 44.50660 39.81400 27284 ft 457 kts 353°
2026-05-06 05:06 44.53812 39.80746 27574 ft 458 kts 353°
2026-05-06 05:06 44.56979 39.80107 27842 ft 460 kts 353°
2026-05-06 05:06 44.60152 39.79479 28101 ft 461 kts 354°
2026-05-06 05:07 44.63339 39.78855 28347 ft 463 kts 354°
2026-05-06 05:07 44.66493 39.78240 28595 ft 464 kts 354°
2026-05-06 05:07 44.69695 39.77619 28851 ft 466 kts 354°
2026-05-06 05:07 44.72908 39.76987 29190 ft 465 kts 354°
2026-05-06 05:08 44.76103 39.76360 29635 ft 462 kts 354°
2026-05-06 05:08 44.79282 39.75736 29969 ft 461 kts 354°
2026-05-06 05:08 44.82460 39.75110 30252 ft 461 kts 354°
2026-05-06 05:08 44.85636 39.74486 30527 ft 461 kts 354°
2026-05-06 05:09 44.88810 39.73864 30827 ft 459 kts 354°
2026-05-06 05:09 44.91977 39.73244 31106 ft 460 kts 354°
2026-05-06 05:09 44.95140 39.72618 31395 ft 459 kts 354°
2026-05-06 05:09 44.98300 39.71991 31667 ft 458 kts 354°
2026-05-06 05:10 45.01449 39.71364 31906 ft 457 kts 354°
2026-05-06 05:10 45.04601 39.70733 32135 ft 456 kts 354°
2026-05-06 05:10 45.07755 39.70113 32357 ft 457 kts 354°
2026-05-06 05:10 45.10902 39.69492 32619 ft 456 kts 354°
2026-05-06 05:11 45.14045 39.68868 32901 ft 457 kts 354°
2026-05-06 05:11 45.17186 39.68239 33191 ft 455 kts 354°
2026-05-06 05:11 45.20314 39.67617 33423 ft 454 kts 354°
2026-05-06 05:11 45.23413 39.67282 33572 ft 453 kts
2026-05-06 05:12 45.26600 39.67441 33769 ft 451 kts
2026-05-06 05:12 45.29739 39.67699 33984 ft 451 kts
2026-05-06 05:12 45.32831 39.67967 34068 ft 453 kts
2026-05-06 05:13 45.39136 39.68454 34070 ft 452 kts
2026-05-06 05:13 45.45396 39.68882 34070 ft 449 kts
2026-05-06 05:14 45.51616 39.69299 34074 ft 446 kts
2026-05-06 05:14 45.57811 39.69723 34073 ft 445 kts
2026-05-06 05:15 45.63989 39.70158 34078 ft 444 kts
2026-05-06 05:15 45.70164 39.70594 34070 ft 444 kts
2026-05-06 05:16 45.76351 39.71027 34069 ft 446 kts
2026-05-06 05:16 45.82566 39.71464 34072 ft 448 kts
2026-05-06 05:17 45.88804 39.71901 34069 ft 450 kts
2026-05-06 05:17 45.95079 39.72320 34072 ft 452 kts
2026-05-06 05:18 46.01372 39.72748 34063 ft 452 kts
2026-05-06 05:18 46.07666 39.73173 34072 ft 453 kts
2026-05-06 05:19 46.13918 39.73596 34072 ft 453 kts
2026-05-06 05:19 46.20214 39.74026 34056 ft 453 kts
2026-05-06 05:20 46.26507 39.74458 34051 ft 451 kts
2026-05-06 05:20 46.32779 39.74885 34056 ft 450 kts
2026-05-06 05:21 46.39032 39.75340 34054 ft 450 kts
2026-05-06 05:21 46.45268 39.75890 34057 ft 449 kts
2026-05-06 05:22 46.51479 39.76452 34048 ft 447 kts
2026-05-06 05:22 46.57691 39.77000 34056 ft 447 kts
2026-05-06 05:23 46.63859 39.77540 34057 ft 446 kts
2026-05-06 05:23 46.73147 39.78362 34053 ft 445 kts
2026-05-06 05:24 46.79330 39.78907 34054 ft 445 kts
2026-05-06 05:24 46.85438 39.79444 34055 ft 445 kts
2026-05-06 05:25 46.91631 39.79990 34047 ft 445 kts
2026-05-06 05:25 46.97793 39.80537 34038 ft 443 kts
2026-05-06 05:26 47.03941 39.81087 34034 ft 443 kts
2026-05-06 05:26 47.10093 39.81633 34050 ft 443 kts
2026-05-06 05:27 47.16245 39.82180 34044 ft 443 kts
2026-05-06 05:27 47.22306 39.83251 34047 ft 441 kts 16°
2026-05-06 05:28 47.28267 39.85449 34042 ft 441 kts 17°
2026-05-06 05:28 47.34225 39.87663 34050 ft 441 kts 16°
2026-05-06 05:29 47.40168 39.89817 34041 ft 439 kts 16°
2026-05-06 05:29 47.46113 39.91963 34054 ft 438 kts 16°
2026-05-06 05:30 47.52021 39.94130 34043 ft 436 kts 18°
2026-05-06 05:30 47.57820 39.96621 34047 ft 435 kts 19°
2026-05-06 05:31 47.63629 39.99194 34047 ft 435 kts 19°
2026-05-06 05:31 47.69437 40.01728 34046 ft 434 kts 19°
2026-05-06 05:32 47.75223 40.04230 34048 ft 433 kts 19°
2026-05-06 05:32 47.80999 40.06746 34048 ft 433 kts 19°
2026-05-06 05:33 47.86785 40.09253 34049 ft 433 kts 19°
2026-05-06 05:33 47.92666 40.11366 34053 ft 436 kts 14°
2026-05-06 05:34 47.98635 40.13020 34050 ft 438 kts 13°
2026-05-06 05:34 48.04614 40.14736 34050 ft 438 kts 14°
2026-05-06 05:35 48.10606 40.16430 34041 ft 439 kts 12°
2026-05-06 05:35 48.16666 40.17672 34047 ft 440 kts 10°
2026-05-06 05:36 48.22698 40.18831 34045 ft 441 kts 10°
2026-05-06 05:36 48.28772 40.20053 34033 ft 441 kts 11°
2026-05-06 05:37 48.34844 40.21308 34036 ft 440 kts 11°
2026-05-06 05:37 48.40927 40.22568 34031 ft 441 kts 11°
2026-05-06 05:38 48.46996 40.23830 34034 ft 439 kts 11°
2026-05-06 05:38 48.53040 40.25091 34028 ft 438 kts 11°
2026-05-06 05:39 48.59083 40.26359 34042 ft 437 kts 11°
2026-05-06 05:39 48.65068 40.27623 34029 ft 438 kts 11°
2026-05-06 05:40 48.71140 40.28906 34032 ft 438 kts 11°
2026-05-06 05:40 48.77140 40.30180 34028 ft 438 kts 10°
2026-05-06 05:41 48.83196 40.31467 34034 ft 439 kts 10°
2026-05-06 05:41 48.89243 40.32752 34027 ft 440 kts 10°
2026-05-06 05:42 48.95307 40.34036 34014 ft 440 kts 10°
2026-05-06 05:42 49.01379 40.35327 34016 ft 441 kts 10°
2026-05-06 05:43 49.07433 40.36614 34012 ft 443 kts 10°
2026-05-06 05:43 49.13541 40.37921 34018 ft 443 kts 10°
2026-05-06 05:44 49.19643 40.39228 34017 ft 443 kts 10°
2026-05-06 05:44 49.25765 40.40543 34011 ft 444 kts 10°
2026-05-06 05:45 49.31890 40.41869 34005 ft 445 kts 10°
2026-05-06 05:45 49.38020 40.43190 34001 ft 445 kts 10°
2026-05-06 05:46 49.44157 40.44518 34001 ft 444 kts 10°
2026-05-06 05:46 49.50266 40.45846 33998 ft 443 kts
2026-05-06 05:47 49.56399 40.46865 33996 ft 444 kts
2026-05-06 05:47 49.62531 40.47240 33991 ft 444 kts
2026-05-06 05:48 49.68715 40.47562 33995 ft 444 kts
2026-05-06 05:48 49.74900 40.47942 33993 ft 445 kts
2026-05-06 05:49 49.81089 40.48362 33992 ft 445 kts
2026-05-06 05:49 49.87284 40.48777 33988 ft 445 kts
2026-05-06 05:50 49.93493 40.49207 33991 ft 447 kts
2026-05-06 05:50 49.99707 40.49629 33988 ft 446 kts
2026-05-06 05:51 50.05912 40.50133 33981 ft 446 kts
2026-05-06 05:51 50.11870 40.52485 33987 ft 444 kts 19°
2026-05-06 05:52 50.17731 40.55510 33982 ft 444 kts 19°
2026-05-06 05:52 50.23603 40.58492 33981 ft 444 kts 19°
2026-05-06 05:53 50.28524 40.60952 33979 ft 444 kts 19°
2026-05-06 05:53 50.34405 40.63872 33985 ft 443 kts 19°
2026-05-06 05:54 50.40281 40.66797 33980 ft 444 kts 19°
2026-05-06 05:54 50.46115 40.69718 33983 ft 443 kts 19°
2026-05-06 05:55 50.52000 40.72672 33987 ft 444 kts 19°
2026-05-06 05:55 50.57893 40.75628 33973 ft 445 kts 19°
2026-05-06 05:56 50.63794 40.78606 33973 ft 445 kts 19°
2026-05-06 05:56 50.69679 40.81599 33970 ft 445 kts 19°
2026-05-06 05:57 50.75581 40.84617 33976 ft 446 kts 19°
2026-05-06 05:57 50.81489 40.87637 33973 ft 447 kts 19°
2026-05-06 05:58 50.87596 40.89426 33978 ft 449 kts
2026-05-06 05:58 50.93819 40.88453 33979 ft 451 kts 352°
2026-05-06 05:59 51.00003 40.86782 33972 ft 451 kts 351°
2026-05-06 05:59 51.06203 40.85131 33977 ft 451 kts 352°
2026-05-06 06:00 51.12403 40.83548 33968 ft 451 kts 352°
2026-05-06 06:00 51.18606 40.81981 33966 ft 451 kts 352°
2026-05-06 06:01 51.24809 40.80421 33972 ft 451 kts 352°
2026-05-06 06:01 51.30958 40.78855 33973 ft 451 kts 352°
2026-05-06 06:02 51.37160 40.77278 33972 ft 452 kts 352°
2026-05-06 06:02 51.43359 40.75685 33975 ft 451 kts 352°
2026-05-06 06:03 51.49585 40.74088 33974 ft 453 kts 352°
2026-05-06 06:03 51.55818 40.72487 33970 ft 454 kts 352°
2026-05-06 06:04 51.62048 40.70883 33974 ft 453 kts 352°
2026-05-06 06:04 51.68284 40.69271 33966 ft 453 kts 352°
2026-05-06 06:05 51.74509 40.67668 33966 ft 453 kts 352°
2026-05-06 06:05 51.80738 40.66066 33960 ft 452 kts 352°
2026-05-06 06:06 51.86914 40.64472 33958 ft 452 kts 352°
2026-05-06 06:06 51.93110 40.62849 33956 ft 451 kts 351°
2026-05-06 06:07 51.99309 40.61228 33962 ft 451 kts 351°
2026-05-06 06:07 52.05515 40.59593 33949 ft 453 kts 351°
2026-05-06 06:08 52.11728 40.57957 33957 ft 453 kts 351°
2026-05-06 06:08 52.17952 40.56315 33962 ft 452 kts 351°
2026-05-06 06:09 52.24171 40.54671 33953 ft 452 kts 351°
2026-05-06 06:09 52.30355 40.53025 33949 ft 449 kts 351°
2026-05-06 06:10 52.36520 40.51384 33937 ft 448 kts 351°
2026-05-06 06:10 52.42667 40.49739 33945 ft 447 kts 351°
2026-05-06 06:11 52.48740 40.47936 33932 ft 446 kts 344°
2026-05-06 06:11 52.54402 40.43862 33960 ft 444 kts 330°
2026-05-06 06:12 52.59743 40.38736 33953 ft 443 kts 329°
2026-05-06 06:12 52.65067 40.33634 33953 ft 444 kts 330°
2026-05-06 06:13 52.70441 40.28564 33951 ft 445 kts 330°
2026-05-06 06:13 52.75822 40.23493 33936 ft 446 kts 330°
2026-05-06 06:14 52.81221 40.18395 33937 ft 447 kts 330°
2026-05-06 06:14 52.86617 40.13281 33934 ft 447 kts 330°
2026-05-06 06:15 52.91123 40.09006 33928 ft 445 kts 330°
2026-05-06 06:15 52.96503 40.03872 33942 ft 448 kts 329°
2026-05-06 06:16 53.01917 39.98696 33932 ft 450 kts 329°
2026-05-06 06:16 53.07293 39.93537 33937 ft 450 kts 329°
2026-05-06 06:17 53.12715 39.88331 33930 ft 449 kts 329°
2026-05-06 06:17 53.18127 39.83114 33932 ft 449 kts 329°
2026-05-06 06:18 53.23522 39.77902 33932 ft 447 kts 329°
2026-05-06 06:18 53.28887 39.72700 33933 ft 445 kts 329°
2026-05-06 06:19 53.34224 39.67508 33937 ft 443 kts 329°
2026-05-06 06:19 53.39549 39.62315 33939 ft 442 kts 329°
2026-05-06 06:20 53.44937 39.57354 33926 ft 441 kts 332°
2026-05-06 06:20 53.50438 39.52770 33926 ft 440 kts 333°
2026-05-06 06:21 53.55928 39.48193 33934 ft 441 kts 332°
2026-05-06 06:21 53.61378 39.43576 33932 ft 441 kts 332°
2026-05-06 06:22 53.66853 39.38895 33931 ft 441 kts 332°
2026-05-06 06:22 53.72346 39.34190 33932 ft 444 kts 332°
2026-05-06 06:23 53.77861 39.29454 33923 ft 445 kts 332°
2026-05-06 06:23 53.83382 39.24688 33924 ft 445 kts 332°
2026-05-06 06:24 53.88903 39.19915 33919 ft 446 kts 332°
2026-05-06 06:24 53.94429 39.15119 33911 ft 446 kts 331°
2026-05-06 06:25 53.99958 39.10294 33908 ft 446 kts 332°
2026-05-06 06:26 54.08231 39.03062 33906 ft 445 kts 331°
2026-05-06 06:26 54.13695 38.98266 33899 ft 444 kts 331°
2026-05-06 06:27 54.19175 38.93445 33895 ft 442 kts 330°
2026-05-06 06:27 54.24455 38.88161 33883 ft 438 kts 319°
2026-05-06 06:28 54.28975 38.81222 33887 ft 435 kts 315°
2026-05-06 06:28 54.33400 38.74159 33886 ft 435 kts 315°
2026-05-06 06:29 54.37843 38.67122 33884 ft 435 kts 315°
2026-05-06 06:29 54.42315 38.60095 33878 ft 435 kts 315°
2026-05-06 06:30 54.46746 38.53124 33880 ft 434 kts 315°
2026-05-06 06:30 54.51190 38.46086 33880 ft 434 kts 315°
2026-05-06 06:31 54.55648 38.39033 33869 ft 435 kts 315°
2026-05-06 06:31 54.60103 38.31960 33870 ft 436 kts 315°
2026-05-06 06:32 54.64566 38.24845 33862 ft 438 kts 315°
2026-05-06 06:32 54.69033 38.17696 33864 ft 438 kts 315°
2026-05-06 06:33 54.73511 38.10517 33864 ft 438 kts 315°
2026-05-06 06:33 54.77977 38.03324 33853 ft 439 kts 315°
2026-05-06 06:34 54.82426 37.96121 33864 ft 437 kts 314°
2026-05-06 06:34 54.86866 37.88912 33859 ft 435 kts 314°
2026-05-06 06:35 54.91274 37.81735 33866 ft 434 kts 314°
2026-05-06 06:35 54.95677 37.74545 33857 ft 434 kts 314°
2026-05-06 06:36 55.00044 37.67390 33861 ft 432 kts 314°
2026-05-06 06:36 55.04371 37.60282 33860 ft 433 kts 314°
2026-05-06 06:37 55.08741 37.53077 33859 ft 432 kts 313°
2026-05-06 06:37 55.13098 37.45863 33860 ft 431 kts 313°
2026-05-06 06:38 55.17454 37.38659 33861 ft 430 kts 313°
2026-05-06 06:38 55.21791 37.31467 33865 ft 429 kts 313°
2026-05-06 06:39 55.26108 37.24279 33861 ft 427 kts 313°
2026-05-06 06:39 55.30411 37.17080 33857 ft 427 kts 313°
2026-05-06 06:40 55.34679 37.09916 33865 ft 427 kts 313°
2026-05-06 06:40 55.38969 37.02700 33865 ft 427 kts 313°
2026-05-06 06:41 55.43263 36.95452 33863 ft 428 kts 312°
2026-05-06 06:41 55.47552 36.88176 33858 ft 429 kts 312°
2026-05-06 06:42 55.51123 36.82100 33867 ft 430 kts 312°